Weather observations for the past three days for
Middlesboro, Middlesboro-Bell County Airport
Metric (Imperial)
Date Time (edt) Wind (kph) Vis. (km) Weather Sky Cond. Temperature (ºC) Relative Humidity Wind Chill (°C) Heat Index (°C) Pressure Precipitation (cm)
Air Dwpt 6 hour altimeter (cm) sea level (mb) 1 hr 3 hr 6 hr
Max. Min.
05 09:15 Calm 16.09 Fair CLR 0 0 0% 76.15 0.0
05 08:55 Calm 16.09 Fair CLR 0 0 0% 76.12 0.0
05 08:35 Calm 16.09 Fair CLR 0 0 0% 76.15 0.0
05 08:15 Calm 16.09 Fair CLR 0 0 0% 76.12 0.0
05 07:55 Calm 16.09 Fair CLR 0 0 0% 76.12 0.0
05 07:35 Calm 16.09 Fair CLR 0 0 0% 76.12 0.0
05 07:15 Calm 16.09 Fair CLR 0 0 0% 76.1 0.0
05 06:55 Calm 16.09 Fair CLR 0 0 0% 76.1 0.0
05 06:35 Calm 16.09 Fair CLR 0 0 0% 76.07 0.0
05 05:55 Calm 16.09 Fair CLR 0 0 0% 76.07 0.0
05 05:35 Calm 16.09 Fair CLR 0 0 0% 76.07 0.0
05 05:15 Calm 16.09 Fair CLR 0 0 0% 76.07 0.0
05 04:55 Calm 16.09 Fair CLR 0 0 0% 76.07 0.0
05 04:35 Calm 16.09 Fair CLR 0 0 0% 76.05 0.0
05 04:15 Calm 16.09 Fair CLR 0 0 0% 76.05 0.0
05 03:55 Calm 16.09 Fair CLR 0 0 0% 76.02 0.0
05 03:35 Calm 16.09 Fair CLR 0 0 0% 76.02 0.0
05 03:15 Calm 16.09 Fair CLR 0 0 0% 76 0.0
05 02:55 Calm 16.09 Fair CLR 0 0 0% 76 0.0
05 02:35 SW 7 16.09 Fair CLR 0 0 0% 76 0.0
05 02:15 S 7 16.09 Fair CLR 0 0 0% 76 0.0
05 01:55 Calm 16.09 Fair CLR 0 0 0% 76 0.0
05 01:35 S 7 16.09 Fair CLR 0 0 0% 76 0.0
05 01:15 SW 15 16.09 Fair CLR 0 0 0% 76 0.0
05 00:55 S 7 G 26 16.09 Fair CLR 0 0 0% 75.97 0.0
05 00:35 S 9 16.09 Fair CLR 0 0 0% 75.97 0.0
05 00:15 S 17 G 28 16.09 Fair CLR 0 0 0% 75.95 0.0
04 23:55 S 17 G 37 16.09 Fair CLR 0 0 0% 75.95 0.0
04 23:35 SW 20 G 33 16.09 Fair CLR 0 0 0% 75.95 0.0
04 23:15 SW 19 G 33 16.09 Fair CLR 0 0 0% 75.95 0.0
04 22:55 SW 20 G 37 16.09 Fair CLR 0 0 0% 75.95 0.0
04 22:35 S 20 G 33 16.09 Fair CLR 0 0 0% 75.95 0.0
04 22:15 SW 15 16.09 Fair CLR 0 0 0% 75.97 0.0
04 21:55 SW 13 16.09 Fair CLR 0 0 0% 75.95 0.0
04 21:35 SW 11 G 33 16.09 Fair CLR 0 0 0% 75.95 0.0
04 21:15 SW 7 16.09 Fair CLR 0 0 0% 75.95 0.0
04 20:55 SW 15 G 33 16.09 Fair CLR 0 0 0% 75.95 0.0
04 20:15 S 17 16.09 Fair CLR 0 0 0% 75.92 0.0
04 19:55 S 13 16.09 Fair CLR 0 0 0% 75.92 0.0
04 19:35 SW 17 G 26 16.09 Fair CLR 0 0 0% 75.9 0.0
04 19:15 S 17 16.09 Fair CLR 0 0 0% 75.9 0.0
04 18:55 S 19 G 26 16.09 Fair CLR 0 0 0% 75.9 0.0
04 18:35 S 17 16.09 Fair CLR 0 0 0% 75.92 0.0
04 18:15 S 15 G 31 16.09 Fair CLR 0 0 0% 75.92 0.0
04 17:55 S 22 G 30 16.09 Fair CLR 0 0 0% 75.92 0.0
04 17:35 S 17 G 28 16.09 Fair CLR 0 0 0% 75.92 0.0
04 17:15 S 17 16.09 Fair CLR 0 0 0% 75.92 0.0
04 16:55 S 15 16.09 Fair CLR 0 0 0% 75.95 0.0
04 16:35 S 15 G 26 16.09 Fair CLR 0 0 0% 75.97 0.0
04 16:15 S 13 16.09 Fair CLR 0 0 0% 76 0.0
04 15:55 S 15 G 28 16.09 Fair CLR 0 0 0% 76 0.0
04 15:35 S 7 16.09 Fair CLR 0 0 0% 76.02 0.0
04 15:15 S 13 16.09 Fair CLR 0 0 0% 76.05 0.0
04 14:55 S 19 G 28 16.09 Fair CLR 0 0 0% 76.07 0.0
04 14:35 S 20 16.09 Fair CLR 0 0 0% 76.07 0.0
04 14:15 S 17 16.09 Fair CLR 0 0 0% 76.1 0.0
04 13:55 SE 7 16.09 Fair CLR 0 0 0% 76.12 0.0
04 13:35 S 15 16.09 Fair CLR 0 0 0% 76.15 0.0
04 13:15 S 15 16.09 Fair CLR 0 0 0% 76.17 0.0
04 12:55 S 11 16.09 Fair CLR 0 0 0% 76.2 0.0
04 12:35 S 11 16.09 Fair CLR 0 0 0% 76.23 0.0
04 12:15 SE 9 16.09 Fair CLR 0 0 0% 76.25 0.0
04 11:55 S 11 16.09 Fair CLR 0 0 0% 76.25 0.0
04 11:35 S 13 16.09 Fair CLR 0 0 0% 76.28 0.0
04 11:15 S 17 G 28 16.09 Fair CLR 0 0 0% 76.28 0.0
04 10:55 S 19 16.09 Partly Cloudy SCT055 0 0 0% 76.3 0.0
04 10:35 S 15 16.09 Mostly Cloudy BKN055 BKN070 0 0 0% 76.33 0.0
04 10:15 S 9 16.09 Overcast OVC055 0 0 0% 76.35 0.0
04 09:55 Calm 16.09 Mostly Cloudy SCT055 BKN070 BKN090 0 0 0% 76.35 0.0
04 09:35 Calm 16.09 Overcast BKN090 OVC110 0 0 0% 76.35 0.0
04 09:15 Calm 16.09 Overcast OVC090 0 0 0% 76.35 0.0
04 08:55 Calm 16.09 Mostly Cloudy BKN090 BKN110 0 0 0% 76.33 0.0
04 08:35 Calm 16.09 Partly Cloudy SCT100 0 0 0% 76.33 0.0
04 08:15 Calm 16.09 Partly Cloudy SCT100 0 0 0% 76.33 0.0
04 07:55 Calm 16.09 Partly Cloudy SCT100 0 0 0% 76.3 0.0
04 07:35 Calm 16.09 Thunderstorm in Vicinity BKN100 0 0 0% 76.3 0.0
04 07:15 N 6 16.09 Overcast OVC090 0 0 0% 76.28 0.0
04 06:55 Calm 16.09 Mostly Cloudy BKN090 0 0 0% 76.28 0.0
04 06:35 Calm 16.09 Partly Cloudy SCT090 0 0 0% 76.25 0.0
04 06:15 Calm 16.09 Fair CLR 0 0 0% 76.25 0.0
04 05:55 Calm 16.09 Thunderstorm in Vicinity CLR 0 0 0% 76.28 0.0
04 05:35 Calm 16.09 Fair CLR 0 0 0% 76.33 0.0
04 05:15 Calm 16.09 Partly Cloudy SCT120 0 0 0% 76.33 0.0
04 04:55 Calm 16.09 Partly Cloudy SCT120 0 0 0% 76.38 0.0
04 04:35 Calm 16.09 Fair CLR 0 0 0% 76.33 0.0
04 04:15 Calm 16.09 Fair CLR 0 0 0% 76.33 0.0
04 03:55 Calm 16.09 Fair CLR 0 0 0% 76.33 0.0
04 03:35 Calm 16.09 Fair CLR 0 0 0% 76.33 0.0
04 03:15 Calm 16.09 Fair CLR 0 0 0% 76.33 0.0
04 02:55 Calm 16.09 Fair CLR 0 0 0% 76.35 0.0
04 02:35 Calm 16.09 Fair CLR 0 0 0% 76.35 0.0
04 02:15 Calm 16.09 Fair CLR 0 0 0% 76.35 0.0
04 01:55 Calm 16.09 Fair CLR 0 0 0% 76.35 0.0
04 01:35 Calm 16.09 Fair CLR 0 0 0% 76.35 0.0
04 01:15 Calm 16.09 Fair CLR 0 0 0% 76.38 0.0
04 00:55 Calm 16.09 Fair CLR 0 0 0% 76.35 0.0
04 00:35 Calm 16.09 Fair CLR 0 0 0% 76.35 0.0
04 00:15 Calm 16.09 Fair CLR 0 0 0% 76.35 0.0
03 23:55 Calm 16.09 Fair CLR 0 0 0% 76.35 0.0
03 23:35 Calm 16.09 Fair CLR 0 0 0% 76.35 0.0
03 23:15 Calm 16.09 Fair CLR 0 0 0% 76.33 0.0
03 22:55 Calm 16.09 Fair CLR 0 0 0% 76.33 0.0
03 22:35 Calm 16.09 Fair CLR 0 0 0% 76.3 0.0
03 22:15 Calm 16.09 Fair CLR 0 0 0% 76.28 0.0
03 21:55 Calm 16.09 Fair CLR 0 0 0% 76.25 0.0
03 21:35 Calm 16.09 Fair CLR 0 0 0% 76.25 0.0
03 21:15 NW 6 16.09 Fair CLR 0 0 0% 76.25 0.0
03 20:55 NW 6 16.09 Fair CLR 0 0 0% 76.25 0.0
03 20:35 Calm 16.09 Fair CLR 0 0 0% 76.25 0.0
03 20:15 Calm 16.09 Fair CLR 0 0 0% 76.25 0.0
03 19:55 S 9 16.09 Fair CLR 0 0 0% 76.23 0.0
03 19:35 S 11 16.09 Fair CLR 0 0 0% 76.23 0.0
03 19:15 S 11 16.09 Fair CLR 0 0 0% 76.23 0.0
03 18:35 S 13 16.09 Fair CLR 0 0 0% 76.25 0.0
03 18:15 S 13 16.09 Fair CLR 0 0 0% 76.25 0.0
03 17:55 S 17 16.09 Fair CLR 0 0 0% 76.28 0.0
03 17:35 S 19 16.09 Fair CLR 0 0 0% 76.28 0.0
03 17:15 S 15 16.09 Fair CLR 0 0 0% 76.33 0.0
03 16:55 S 19 G 26 16.09 Fair CLR 0 0 0% 76.33 0.0
03 16:35 S 15 G 26 16.09 Fair CLR 0 0 0% 76.33 0.0
03 16:15 S 7 16.09 Fair CLR 0 0 0% 76.35 0.0
03 15:55 S 13 16.09 Fair CLR 0 0 0% 76.38 0.0
03 15:35 S 6 16.09 Fair CLR 0 0 0% 76.43 0.0
03 15:15 S 13 16.09 Fair CLR 0 0 0% 76.43 0.0
03 14:55 S 7 16.09 Fair CLR 0 0 0% 76.45 0.0
03 14:35 S 9 16.09 Fair CLR 0 0 0% 76.48 0.0
03 14:15 S 17 G 28 16.09 Fair CLR 0 0 0% 76.5 0.0
03 13:55 SE 7 16.09 Fair CLR 0 0 0% 76.5 0.0
03 13:35 Calm 16.09 Fair CLR 0 0 0% 76.53 0.0
03 13:15 SW 6 16.09 Fair CLR 0 0 0% 76.56 0.0
03 12:55 Calm 16.09 Fair CLR 0 0 0% 76.58 0.0
03 12:35 SE 7 16.09 Fair CLR 0 0 0% 76.61 0.0
03 12:15 Calm 16.09 Fair CLR 0 0 0% 76.61 0.0
03 11:55 NE 6 16.09 Fair CLR 0 0 0% 76.63 0.0
03 11:35 E 9 16.09 Fair CLR 0 0 0% 76.66 0.0
03 11:15 Calm 16.09 Fair CLR 0 0 0% 76.66 0.0
03 10:55 Calm 16.09 Fair CLR 0 0 0% 76.66 0.0
03 10:35 Calm 16.09 Fair CLR 0 0 0% 76.66 0.0
03 10:15 E 7 16.09 Fair CLR 0 0 0% 76.66 0.0
03 09:55 Calm 16.09 Fair CLR 0 0 0% 76.68 0.0
03 09:35 Calm 16.09 Fair CLR 0 0 0% 76.68 0.0
03 09:15 Calm 16.09 Fair CLR 0 0 0% 76.68 0.0
03 08:55 Calm 16.09 Fair CLR 0 0 0% 76.68 0.0
03 08:35 Calm 16.09 Fair CLR 0 0 0% 76.66 0.0
03 08:15 Calm 16.09 Fair CLR 0 0 0% 76.66 0.0
03 07:55 Calm 16.09 Fair CLR 0 0 0% 76.66 0.0
03 07:35 Calm 16.09 Fair CLR 0 0 0% 76.63 0.0
03 07:15 Calm 16.09 Fair CLR 0 0 0% 76.63 0.0
03 06:55 Calm 16.09 Fair CLR 0 0 0% 76.61 0.0
03 06:35 Calm 16.09 Fair CLR 0 0 0% 76.58 0.0
03 06:15 Calm 16.09 Fair CLR 0 0 0% 76.56 0.0
03 05:55 Calm 16.09 Fair CLR 0 0 0% 76.56 0.0
03 05:35 Calm 16.09 Fair CLR 0 0 0% 76.56 0.0
03 05:15 Calm 16.09 Fair CLR 0 0 0% 76.53 0.0
03 04:55 Calm 16.09 Fair CLR 0 0 0% 76.53 0.0
03 04:35 Calm 16.09 Fair CLR 0 0 0% 76.53 0.0
03 04:15 Calm 16.09 Fair CLR 0 0 0% 76.5 0.0
03 03:55 Calm 16.09 Fair CLR 0 0 0% 76.5 0.0
03 03:35 Calm 16.09 Fair CLR 0 0 0% 76.48 0.0
03 03:15 Calm 16.09 Fair CLR 0 0 0% 76.45 0.0
03 02:55 Calm 16.09 Fair CLR 0 0 0% 76.45 0.0
03 02:35 Calm 16.09 Fair CLR 0 0 0% 76.43 0.0
03 02:15 Calm 16.09 Fair CLR 0 0 0% 76.43 0.0
03 01:55 Calm 16.09 Fair CLR 0 0 0% 76.45 0.0
03 01:35 Calm 16.09 Fair CLR 0 0 0% 76.45 0.0
03 01:15 Calm 16.09 Fair CLR 0 0 0% 76.43 0.0
03 00:55 Calm 16.09 Partly Cloudy SCT090 0 0 0% 76.43 0.0
03 00:35 Calm 16.09 Mostly Cloudy BKN090 0 0 0% 76.43 0.0
03 00:15 Calm 16.09 Overcast OVC090 0 0 0% 76.38 0.0
02 23:55 Calm 16.09 Overcast OVC100 0 0 0% 76.38 0.0
02 23:35 Calm 16.09 Overcast OVC110 0 0 0% 76.4 0.0
02 23:15 Calm 16.09 Overcast OVC110 0 0 0% 76.4 0.0
02 22:55 Calm 16.09 Mostly Cloudy BKN120 0 0 0% 76.38 0.0
02 22:35 Calm 16.09 Mostly Cloudy SCT060 BKN120 0 0 0% 76.38 0.0
02 22:15 Calm 16.09 Mostly Cloudy SCT050 BKN110 0 0 0% 76.38 0.0
02 21:55 NW 6 16.09 Overcast SCT050 OVC110 0 0 0% 76.35 0.0
02 21:35 Calm 16.09 Overcast BKN050 OVC120 0 0 0% 76.33 0.0
02 21:15 Calm 16.09 Mostly Cloudy SCT050 BKN120 0 0 0% 76.33 0.0
02 20:55 NW 6 16.09 Fair CLR 0 0 0% 76.3 0.0
02 20:35 Calm 16.09 Fair CLR 0 0 0% 76.28 0.0
02 20:15 Calm 16.09 Fair CLR 0 0 0% 76.25 0.0
02 19:55 NW 7 16.09 Partly Cloudy SCT070 0 0 0% 76.23 0.0
02 19:35 N 9 16.09 Partly Cloudy SCT080 SCT085 0 0 0% 76.23 0.0
02 19:15 N 11 16.09 Mostly Cloudy BKN080 BKN095 0 0 0% 76.23 0.0
02 18:55 W 17 16.09 Overcast SCT050 OVC095 0 0 0% 76.23 0.0
02 18:35 NW 9 16.09 Light Drizzle BKN060 OVC075 0 0 0% 76.23 0.0
02 18:15 N 11 G 26 16.09 Light Rain OVC060 0 0 0% 76.2 0.0
02 17:55 N 7 16.09 Overcast BKN065 OVC095 0 0 0% 76.2 0.0
02 17:35 N 7 16.09 Overcast SCT065 SCT075 OVC095 0 0 0% 76.17 0.0
02 17:15 N 11 16.09 Overcast SCT060 BKN085 OVC110 0 0 0% 76.17 0.0
02 16:55 NW 19 16.09 Overcast SCT060 BKN070 OVC110 0 0 0% 76.17 0.0
02 16:35 N 11 G 26 16.09 Overcast SCT070 OVC110 0 0 0% 76.15 0.0
02 16:15 NW 13 16.09 Overcast BKN070 BKN080 OVC100 0 0 0% 76.17 0.0
02 15:35 W 13 16.09 Mostly Cloudy SCT070 BKN090 0 0 0% 76.17 0.0
02 15:15 N 15 G 26 16.09 Mostly Cloudy SCT070 BKN090 0 0 0% 76.17 0.0
02 14:55 NW 13 16.09 Overcast BKN070 OVC080 0 0 0% 76.2 0.0
02 14:35 N 19 16.09 Mostly Cloudy SCT070 BKN080 0 0 0% 76.2 0.0
02 14:15 NW 20 16.09 Partly Cloudy SCT070 SCT080 0 0 0% 76.2 0.0
02 13:55 N 17 16.09 Mostly Cloudy BKN070 BKN080 0 0 0% 76.2 0.0
02 13:35 N 15 G 30 16.09 Partly Cloudy SCT070 0 0 0% 76.2 0.0
02 13:15 N 19 G 30 16.09 Partly Cloudy SCT070 0 0 0% 76.25 0.0
02 12:55 NE 20 16.09 Partly Cloudy SCT070 0 0 0% 76.25 0.0
02 12:35 N 7 16.09 Fair CLR 0 0 0% 76.25 0.0
02 12:15 NW 13 16.09 Fair CLR 0 0 0% 76.28 0.0
02 11:55 NE 13 16.09 Fair CLR 0 0 0% 76.28 0.0
02 11:35 N 15 16.09 Fair CLR 0 0 0% 76.28 0.0
02 11:15 N 6 16.09 Fair CLR 0 0 0% 76.28 0.0
02 10:55 NE 7 16.09 Fair CLR 0 0 0% 76.3 0.0
02 10:35 NE 13 16.09 Fair CLR 0 0 0% 76.3 0.0
02 10:15 NE 9 16.09 Fair CLR 0 0 0% 76.28 0.0
02 09:55 NE 9 16.09 Fair CLR 0 0 0% 76.3 0.0
02 09:35 NE 11 16.09 Fair CLR 0 0 0% 76.28 0.0
Date Time (edt) Wind (kph) Vis. (km) Weather Sky Cond. Air Dwpt Max. Min. Relative Humidity Wind Chill (°C) Heat Index (°C) altimeter (cm) sea level (mb) 1 hr 3 hr 6 hr
6 hour
Temperature (ºC) Pressure Precipitation (cm)